Time,TemperatureF,DewpointF,PressureIn,WindDirection,WindDirectionDegrees,WindSpeedMPH,WindSpeedGustMPH,Humidity,HourlyPrecipIn,Conditions,Clouds,dailyrainin,SoftwareType,DateUTC
2013-03-31 00:00:00,30.5,23.2,30.12,NW,325,0.0,0.0,74,0.00,,,0.00,WeatherCatV1.14B232,2013-03-31 04:00:00,
2013-03-31 00:01:00,30.5,23.5,30.12,NW,325,0.0,0.0,75,0.00,,,0.00,WeatherCatV1.14B232,2013-03-31 04:01:00,
2013-03-31 00:06:00,30.3,23.3,30.12,NW,324,0.0,0.0,75,0.00,,,0.00,WeatherCatV1.14B232,2013-03-31 04:06:00,
2013-03-31 00:11:00,30.2,22.9,30.11,NW,325,0.0,0.0,74,0.00,,,0.00,WeatherCatV1.14B232,2013-03-31 04:11:00,
2013-03-31 00:16:00,30.2,23.2,30.12,NW,325,0.0,0.0,75,0.00,,,0.00,WeatherCatV1.14B232,2013-03-31 04:16:00,
2013-03-31 00:21:00,30.1,23.2,30.12,NW,324,0.0,0.0,75,0.00,,,0.00,WeatherCatV1.14B232,2013-03-31 04:21:00,
2013-03-31 00:26:00,29.9,23.3,30.13,NW,324,0.0,0.0,76,0.00,,,0.00,WeatherCatV1.14B232,2013-03-31 04:26:00,
2013-03-31 00:31:00,29.7,23.4,30.12,NW,325,0.0,0.0,77,0.00,,,0.00,WeatherCatV1.14B232,2013-03-31 04:31:00,
2013-03-31 00:36:00,29.5,23.2,30.12,NW,325,0.0,0.0,77,0.00,,,0.00,WeatherCatV1.14B232,2013-03-31 04:36:00,
2013-03-31 00:41:00,29.4,23.4,30.12,NW,325,0.0,0.0,78,0.00,,,0.00,WeatherCatV1.14B232,2013-03-31 04:41:00,
2013-03-31 00:46:00,29.4,23.4,30.12,NW,325,0.0,0.0,78,0.00,,,0.00,WeatherCatV1.14B232,2013-03-31 04:46:00,
2013-03-31 00:51:00,29.1,23.1,30.13,NW,325,0.0,0.0,78,0.00,,,0.00,WeatherCatV1.14B232,2013-03-31 04:51:00,
2013-03-31 00:56:00,28.9,23.2,30.13,NW,325,0.0,0.0,79,0.00,,,0.00,WeatherCatV1.14B232,2013-03-31 04:56:00,
2013-03-31 01:01:00,29.0,23.0,30.13,NW,325,0.0,0.0,78,0.00,,,0.00,WeatherCatV1.14B232,2013-03-31 05:01:00,
2013-03-31 01:06:00,29.0,23.3,30.13,NW,325,0.0,0.0,79,0.00,,,0.00,WeatherCatV1.14B232,2013-03-31 05:06:00,
2013-03-31 01:11:00,28.8,23.1,30.12,NW,325,0.0,0.0,79,0.00,,,0.00,WeatherCatV1.14B232,2013-03-31 05:11:00,
2013-03-31 01:16:00,28.7,23.0,30.13,NW,325,0.0,0.0,79,0.00,,,0.00,WeatherCatV1.14B232,2013-03-31 05:16:00,
2013-03-31 01:21:00,28.5,22.8,30.13,NW,325,0.0,0.0,79,0.00,,,0.00,WeatherCatV1.14B232,2013-03-31 05:21:00,
2013-03-31 01:26:00,28.4,22.7,30.13,NW,325,0.0,0.0,79,0.00,,,0.00,WeatherCatV1.14B232,2013-03-31 05:26:00,
2013-03-31 01:31:00,28.1,22.4,30.13,NW,324,0.0,0.0,79,0.00,,,0.00,WeatherCatV1.14B232,2013-03-31 05:31:00,
2013-03-31 01:36:00,27.9,22.2,30.12,NW,325,0.0,0.0,79,0.00,,,0.00,WeatherCatV1.14B232,2013-03-31 05:36:00,
2013-03-31 01:41:00,27.8,22.2,30.13,NW,325,0.0,0.0,79,0.00,,,0.00,WeatherCatV1.14B232,2013-03-31 05:41:00,
2013-03-31 01:46:00,27.6,22.3,30.12,NW,325,0.0,0.0,80,0.00,,,0.00,WeatherCatV1.14B232,2013-03-31 05:46:00,
2013-03-31 01:51:00,27.6,22.3,30.13,NW,325,0.0,0.0,80,0.00,,,0.00,WeatherCatV1.14B232,2013-03-31 05:51:00,
2013-03-31 01:56:00,27.8,22.4,30.12,NW,325,0.0,0.0,80,0.00,,,0.00,WeatherCatV1.14B232,2013-03-31 05:56:00,
2013-03-31 02:01:00,27.8,22.4,30.11,NW,324,0.0,0.0,80,0.00,,,0.00,WeatherCatV1.14B232,2013-03-31 06:01:00,
2013-03-31 02:06:00,27.8,22.4,30.12,NW,325,0.0,0.0,80,0.00,,,0.00,WeatherCatV1.14B232,2013-03-31 06:06:00,
2013-03-31 02:11:00,27.6,22.3,30.12,NW,325,0.0,0.0,80,0.00,,,0.00,WeatherCatV1.14B232,2013-03-31 06:11:00,
2013-03-31 02:16:00,27.5,22.2,30.12,NW,325,0.0,0.0,80,0.00,,,0.00,WeatherCatV1.14B232,2013-03-31 06:16:00,
2013-03-31 02:21:00,27.3,22.3,30.12,NW,325,0.0,0.0,81,0.00,,,0.00,WeatherCatV1.14B232,2013-03-31 06:21:00,
2013-03-31 02:26:00,27.2,22.2,30.12,NW,324,0.0,0.0,81,0.00,,,0.00,WeatherCatV1.14B232,2013-03-31 06:26:00,
2013-03-31 02:27:00,27.2,22.2,30.12,NW,325,0.0,0.0,81,0.00,,,0.00,WeatherCatV1.14B232,2013-03-31 06:27:00,
2013-03-31 02:32:00,27.2,22.7,30.13,NW,325,0.0,0.0,83,0.00,,,0.00,WeatherCatV1.14B232,2013-03-31 06:32:00,
2013-03-31 02:37:00,27.1,22.4,30.12,NW,324,0.0,0.0,82,0.00,,,0.00,WeatherCatV1.14B232,2013-03-31 06:37:00,
2013-03-31 02:41:00,27.1,22.4,30.12,NW,325,0.0,0.0,82,0.00,,,0.00,WeatherCatV1.14B232,2013-03-31 06:41:00,
2013-03-31 02:46:00,27.1,22.6,30.12,NW,325,0.0,0.0,83,0.00,,,0.00,WeatherCatV1.14B232,2013-03-31 06:46:00,
2013-03-31 02:51:00,27.2,22.7,30.13,NW,324,0.0,0.0,83,0.00,,,0.00,WeatherCatV1.14B232,2013-03-31 06:51:00,
2013-03-31 02:56:00,27.0,22.5,30.12,NW,325,0.0,0.0,83,0.00,,,0.00,WeatherCatV1.14B232,2013-03-31 06:56:00,
2013-03-31 02:57:00,27.1,22.6,30.11,NW,325,0.0,0.0,83,0.00,,,0.00,WeatherCatV1.14B232,2013-03-31 06:57:00,
2013-03-31 03:01:00,26.9,22.2,30.12,NW,325,0.0,0.0,82,0.00,,,0.00,WeatherCatV1.14B232,2013-03-31 07:01:00,
2013-03-31 03:06:00,26.9,22.4,30.12,NW,325,0.0,0.0,83,0.00,,,0.00,WeatherCatV1.14B232,2013-03-31 07:06:00,
2013-03-31 03:11:00,26.9,22.4,30.12,NW,325,0.0,0.0,83,0.00,,,0.00,WeatherCatV1.14B232,2013-03-31 07:11:00,
2013-03-31 03:16:00,26.9,22.4,30.13,NW,325,0.0,0.0,83,0.00,,,0.00,WeatherCatV1.14B232,2013-03-31 07:16:00,
2013-03-31 03:21:00,26.8,22.3,30.12,NW,325,0.0,0.0,83,0.00,,,0.00,WeatherCatV1.14B232,2013-03-31 07:21:00,
2013-03-31 03:26:00,26.6,22.1,30.12,NW,325,0.0,0.0,83,0.00,,,0.00,WeatherCatV1.14B232,2013-03-31 07:26:00,
2013-03-31 03:31:00,26.5,22.3,30.13,NW,325,0.0,0.0,84,0.00,,,0.00,WeatherCatV1.14B232,2013-03-31 07:31:00,
2013-03-31 03:36:00,26.3,21.9,30.12,NW,325,0.0,0.0,83,0.00,,,0.00,WeatherCatV1.14B232,2013-03-31 07:36:00,
2013-03-31 03:41:00,26.5,22.3,30.12,NW,324,0.0,0.0,84,0.00,,,0.00,WeatherCatV1.14B232,2013-03-31 07:41:00,
2013-03-31 03:46:00,26.3,22.4,30.12,NW,325,0.0,0.0,85,0.00,,,0.00,WeatherCatV1.14B232,2013-03-31 07:46:00,
2013-03-31 03:51:00,26.4,22.5,30.12,NW,324,0.0,0.0,85,0.00,,,0.00,WeatherCatV1.14B232,2013-03-31 07:51:00,
2013-03-31 03:56:00,26.2,22.3,30.12,NW,325,0.0,0.0,85,0.00,,,0.00,WeatherCatV1.14B232,2013-03-31 07:56:00,
2013-03-31 04:01:00,26.0,22.1,30.12,NW,324,0.0,0.0,85,0.00,,,0.00,WeatherCatV1.14B232,2013-03-31 08:01:00,
2013-03-31 04:06:00,25.9,22.0,30.12,NW,325,0.0,0.0,85,0.00,,,0.00,WeatherCatV1.14B232,2013-03-31 08:06:00,
2013-03-31 04:07:00,25.8,21.9,30.12,NW,324,0.0,0.0,85,0.00,,,0.00,WeatherCatV1.14B232,2013-03-31 08:07:00,
2013-03-31 04:11:00,25.9,22.0,30.12,NW,325,0.0,0.0,85,0.00,,,0.00,WeatherCatV1.14B232,2013-03-31 08:11:00,
2013-03-31 04:16:00,26.0,22.4,30.12,NW,325,0.0,0.0,86,0.00,,,0.00,WeatherCatV1.14B232,2013-03-31 08:16:00,
2013-03-31 04:21:00,26.0,22.4,30.12,NW,325,0.0,0.0,86,0.00,,,0.00,WeatherCatV1.14B232,2013-03-31 08:21:00,
2013-03-31 04:26:00,25.9,22.0,30.12,NW,325,0.0,0.0,85,0.00,,,0.00,WeatherCatV1.14B232,2013-03-31 08:26:00,
2013-03-31 04:31:00,25.9,22.0,30.12,NW,325,0.0,0.0,85,0.00,,,0.00,WeatherCatV1.14B232,2013-03-31 08:31:00,
2013-03-31 04:36:00,25.9,22.3,30.13,NW,324,0.0,0.0,86,0.00,,,0.00,WeatherCatV1.14B232,2013-03-31 08:36:00,
2013-03-31 04:41:00,25.7,22.4,30.12,NW,325,0.0,0.0,87,0.00,,,0.00,WeatherCatV1.14B232,2013-03-31 08:41:00,
2013-03-31 04:46:00,25.7,22.1,30.13,NW,324,0.0,0.0,86,0.00,,,0.00,WeatherCatV1.14B232,2013-03-31 08:46:00,
2013-03-31 04:47:00,25.7,22.1,30.13,NW,325,0.0,0.0,86,0.00,,,0.00,WeatherCatV1.14B232,2013-03-31 08:47:00,
2013-03-31 04:52:00,25.5,22.5,30.12,NW,325,0.0,0.0,88,0.00,,,0.00,WeatherCatV1.14B232,2013-03-31 08:52:00,
2013-03-31 04:57:00,25.6,22.5,30.12,NW,325,0.0,0.0,88,0.00,,,0.00,WeatherCatV1.14B232,2013-03-31 08:57:00,
2013-03-31 05:02:00,25.3,22.3,30.12,NW,324,0.0,0.0,88,0.00,,,0.00,WeatherCatV1.14B232,2013-03-31 09:02:00,
2013-03-31 05:07:00,25.2,22.2,30.12,NW,325,0.0,0.0,88,0.00,,,0.00,WeatherCatV1.14B232,2013-03-31 09:07:00,
2013-03-31 05:12:00,25.1,22.1,30.12,NW,325,0.0,0.0,88,0.00,,,0.00,WeatherCatV1.14B232,2013-03-31 09:12:00,
2013-03-31 05:17:00,25.1,22.3,30.12,NW,325,0.0,0.0,89,0.00,,,0.00,WeatherCatV1.14B232,2013-03-31 09:17:00,
2013-03-31 05:22:00,25.1,22.3,30.12,NW,325,0.0,0.0,89,0.00,,,0.00,WeatherCatV1.14B232,2013-03-31 09:22:00,
2013-03-31 05:27:00,24.9,22.1,30.13,NW,325,0.0,0.0,89,0.00,,,0.00,WeatherCatV1.14B232,2013-03-31 09:27:00,
2013-03-31 05:31:00,24.8,21.8,30.12,NW,325,0.0,0.0,88,0.00,,,0.00,WeatherCatV1.14B232,2013-03-31 09:31:00,
2013-03-31 05:36:00,24.8,22.0,30.13,NW,325,0.0,0.0,89,0.00,,,0.00,WeatherCatV1.14B232,2013-03-31 09:36:00,
2013-03-31 05:41:00,24.8,22.3,30.12,NW,325,0.0,0.0,90,0.00,,,0.00,WeatherCatV1.14B232,2013-03-31 09:41:00,
2013-03-31 05:46:00,24.7,22.2,30.12,NW,325,0.0,0.0,90,0.00,,,0.00,WeatherCatV1.14B232,2013-03-31 09:46:00,
2013-03-31 05:51:00,24.7,21.9,30.12,NW,325,0.0,0.0,89,0.00,,,0.00,WeatherCatV1.14B232,2013-03-31 09:51:00,
2013-03-31 05:56:00,24.7,21.9,30.13,NW,325,0.0,0.0,89,0.00,,,0.00,WeatherCatV1.14B232,2013-03-31 09:56:00,
2013-03-31 06:01:00,24.6,22.4,30.12,NW,325,0.0,0.0,91,0.00,,,0.00,WeatherCatV1.14B232,2013-03-31 10:01:00,
2013-03-31 06:06:00,24.7,22.5,30.12,NW,324,0.0,0.0,91,0.00,,,0.00,WeatherCatV1.14B232,2013-03-31 10:06:00,
2013-03-31 06:07:00,24.7,22.2,30.13,NW,324,0.0,0.0,90,0.00,,,0.00,WeatherCatV1.14B232,2013-03-31 10:07:00,
2013-03-31 06:11:00,24.5,22.0,30.12,NW,325,0.0,0.0,90,0.00,,,0.00,WeatherCatV1.14B232,2013-03-31 10:11:00,
2013-03-31 06:16:00,24.4,22.2,30.13,NW,324,0.0,0.0,91,0.00,,,0.00,WeatherCatV1.14B232,2013-03-31 10:16:00,
2013-03-31 06:21:00,24.2,22.0,30.12,NW,324,0.0,0.0,91,0.00,,,0.00,WeatherCatV1.14B232,2013-03-31 10:21:00,
2013-03-31 06:26:00,24.1,22.1,30.12,NW,325,0.0,0.0,92,0.00,,,0.00,WeatherCatV1.14B232,2013-03-31 10:26:00,
2013-03-31 06:31:00,23.9,21.9,30.12,NW,325,0.0,0.0,92,0.00,,,0.00,WeatherCatV1.14B232,2013-03-31 10:31:00,
2013-03-31 06:36:00,23.9,21.9,30.13,NW,325,0.0,0.0,92,0.00,,,0.00,WeatherCatV1.14B232,2013-03-31 10:36:00,
2013-03-31 06:41:00,23.9,21.9,30.13,NW,325,0.0,0.0,92,0.00,,,0.00,WeatherCatV1.14B232,2013-03-31 10:41:00,
2013-03-31 06:46:00,24.1,22.1,30.13,NW,325,0.0,0.0,92,0.00,,,0.00,WeatherCatV1.14B232,2013-03-31 10:46:00,
2013-03-31 06:51:00,24.1,22.4,30.12,NW,325,0.0,0.0,93,0.00,,,0.00,WeatherCatV1.14B232,2013-03-31 10:51:00,
2013-03-31 06:56:00,24.2,22.5,30.13,NW,325,0.0,0.0,93,0.00,,,0.00,WeatherCatV1.14B232,2013-03-31 10:56:00,
2013-03-31 06:57:00,24.2,22.5,30.13,NW,325,0.0,0.0,93,0.00,,,0.00,WeatherCatV1.14B232,2013-03-31 10:57:00,
2013-03-31 07:02:00,24.4,22.7,30.13,NW,325,0.0,0.0,93,0.00,,,0.00,WeatherCatV1.14B232,2013-03-31 11:02:00,
2013-03-31 07:06:00,24.7,23.0,30.13,NW,325,0.0,0.0,93,0.00,,,0.00,WeatherCatV1.14B232,2013-03-31 11:06:00,
2013-03-31 07:11:00,25.2,23.7,30.13,NW,325,0.0,0.0,94,0.00,,,0.00,WeatherCatV1.14B232,2013-03-31 11:11:00,
2013-03-31 07:12:00,25.3,23.8,30.13,NW,325,0.0,0.0,94,0.00,,,0.00,WeatherCatV1.14B232,2013-03-31 11:12:00,
2013-03-31 07:16:00,25.7,24.2,30.14,NW,325,0.0,0.0,94,0.00,,,0.00,WeatherCatV1.14B232,2013-03-31 11:16:00,
2013-03-31 07:17:00,26.0,24.5,30.13,NW,325,0.0,0.0,94,0.00,,,0.00,WeatherCatV1.14B232,2013-03-31 11:17:00,
2013-03-31 07:22:00,26.8,25.3,30.14,NW,325,0.0,0.0,94,0.00,,,0.00,WeatherCatV1.14B232,2013-03-31 11:22:00,
2013-03-31 07:27:00,27.5,25.5,30.14,NW,325,0.0,0.0,92,0.00,,,0.00,WeatherCatV1.14B232,2013-03-31 11:27:00,
2013-03-31 07:32:00,28.4,26.1,30.13,NW,325,0.0,0.0,91,0.00,,,0.00,WeatherCatV1.14B232,2013-03-31 11:32:00,
2013-03-31 07:37:00,29.1,26.3,30.13,NW,325,0.0,0.0,89,0.00,,,0.00,WeatherCatV1.14B232,2013-03-31 11:37:00,
2013-03-31 07:42:00,29.7,26.3,30.13,NW,325,0.0,0.0,87,0.00,,,0.00,WeatherCatV1.14B232,2013-03-31 11:42:00,
2013-03-31 07:47:00,30.3,26.9,30.13,NW,325,0.0,0.0,87,0.00,,,0.00,WeatherCatV1.14B232,2013-03-31 11:47:00,
2013-03-31 07:52:00,30.9,27.2,30.13,NW,325,0.0,0.0,86,0.00,,,0.00,WeatherCatV1.14B232,2013-03-31 11:52:00,
2013-03-31 07:57:00,31.6,27.6,30.13,NW,325,0.0,0.0,85,0.00,,,0.00,WeatherCatV1.14B232,2013-03-31 11:57:00,
2013-03-31 08:02:00,32.2,27.6,30.13,NW,325,0.0,0.0,83,0.00,,,0.00,WeatherCatV1.14B232,2013-03-31 12:02:00,
2013-03-31 08:07:00,33.2,28.0,30.13,NW,325,0.0,0.0,81,0.00,,,0.00,WeatherCatV1.14B232,2013-03-31 12:07:00,
2013-03-31 08:11:00,33.4,27.6,30.13,NW,325,0.0,0.0,79,0.00,,,0.00,WeatherCatV1.14B232,2013-03-31 12:11:00,
2013-03-31 08:16:00,34.2,28.1,30.13,NW,325,0.0,0.0,78,0.00,,,0.00,WeatherCatV1.14B232,2013-03-31 12:16:00,
2013-03-31 08:21:00,34.8,27.7,30.12,NW,324,0.0,0.0,75,0.00,,,0.00,WeatherCatV1.14B232,2013-03-31 12:21:00,
2013-03-31 08:26:00,35.0,27.2,30.12,NW,325,0.0,0.0,73,0.00,,,0.00,WeatherCatV1.14B232,2013-03-31 12:26:00,
2013-03-31 08:31:00,35.0,26.9,30.12,NW,325,0.0,0.0,72,0.00,,,0.00,WeatherCatV1.14B232,2013-03-31 12:31:00,
2013-03-31 08:36:00,35.3,27.2,30.12,NW,325,0.0,0.0,72,0.00,,,0.00,WeatherCatV1.14B232,2013-03-31 12:36:00,
2013-03-31 08:41:00,36.0,27.5,30.12,NW,325,0.0,1.0,71,0.00,,,0.00,WeatherCatV1.14B232,2013-03-31 12:41:00,
2013-03-31 08:42:00,36.2,28.1,30.12,NW,324,0.0,1.0,72,0.00,,,0.00,WeatherCatV1.14B232,2013-03-31 12:42:00,
2013-03-31 08:47:00,37.3,28.4,30.12,NW,325,0.0,0.0,70,0.00,,,0.00,WeatherCatV1.14B232,2013-03-31 12:47:00,
2013-03-31 08:51:00,38.1,27.8,30.11,NW,325,0.0,0.0,66,0.00,,,0.00,WeatherCatV1.14B232,2013-03-31 12:51:00,
2013-03-31 08:56:00,38.9,27.8,30.12,NW,325,0.0,0.0,64,0.00,,,0.00,WeatherCatV1.14B232,2013-03-31 12:56:00,
2013-03-31 09:01:00,39.4,28.2,30.11,NW,325,0.0,0.0,64,0.00,,,0.00,WeatherCatV1.14B232,2013-03-31 13:01:00,
2013-03-31 09:06:00,40.0,28.0,30.11,NW,325,0.0,0.0,62,0.00,,,0.00,WeatherCatV1.14B232,2013-03-31 13:06:00,
2013-03-31 09:11:00,40.5,28.5,30.11,NW,325,0.0,0.0,62,0.00,,,0.00,WeatherCatV1.14B232,2013-03-31 13:11:00,
2013-03-31 09:12:00,40.6,28.6,30.11,NW,325,0.0,0.0,62,0.00,,,0.00,WeatherCatV1.14B232,2013-03-31 13:12:00,
2013-03-31 09:16:00,40.9,28.9,30.11,NW,325,0.0,0.0,62,0.00,,,0.00,WeatherCatV1.14B232,2013-03-31 13:16:00,
2013-03-31 09:21:00,41.5,29.1,30.10,NW,325,0.0,0.0,61,0.00,,,0.00,WeatherCatV1.14B232,2013-03-31 13:21:00,
2013-03-31 09:26:00,41.9,29.8,30.11,NW,325,0.0,0.0,62,0.00,,,0.00,WeatherCatV1.14B232,2013-03-31 13:26:00,
2013-03-31 09:31:00,42.7,29.4,30.11,NW,325,0.0,0.0,59,0.00,,,0.00,WeatherCatV1.14B232,2013-03-31 13:31:00,
2013-03-31 09:36:00,43.5,28.4,30.10,NNW,333,0.0,0.0,55,0.00,,,0.00,WeatherCatV1.14B232,2013-03-31 13:36:00,
2013-03-31 09:41:00,44.0,28.9,30.10,North,354,0.0,0.0,55,0.00,,,0.00,WeatherCatV1.14B232,2013-03-31 13:41:00,
2013-03-31 09:46:00,45.1,29.5,30.10,North,359,0.0,2.0,54,0.00,,,0.00,WeatherCatV1.14B232,2013-03-31 13:46:00,
2013-03-31 09:51:00,45.7,29.1,30.10,North,359,0.0,5.0,52,0.00,,,0.00,WeatherCatV1.14B232,2013-03-31 13:51:00,
2013-03-31 09:56:00,46.6,29.5,30.09,North,357,0.0,0.0,51,0.00,,,0.00,WeatherCatV1.14B232,2013-03-31 13:56:00,
2013-03-31 10:01:00,47.6,29.9,30.10,North,356,1.0,3.0,50,0.00,,,0.00,WeatherCatV1.14B232,2013-03-31 14:01:00,
2013-03-31 10:06:00,48.6,28.8,30.10,North,355,2.0,4.0,46,0.00,,,0.00,WeatherCatV1.14B232,2013-03-31 14:06:00,
2013-03-31 10:11:00,49.4,28.4,30.09,NW,324,3.0,4.0,44,0.00,,,0.00,WeatherCatV1.14B232,2013-03-31 14:11:00,
2013-03-31 10:16:00,49.6,28.6,30.10,NW,306,3.0,5.0,44,0.00,,,0.00,WeatherCatV1.14B232,2013-03-31 14:16:00,
2013-03-31 10:21:00,49.7,28.7,30.09,West,265,2.0,6.0,44,0.00,,,0.00,WeatherCatV1.14B232,2013-03-31 14:21:00,
2013-03-31 10:22:00,49.6,28.6,30.09,West,263,2.0,6.0,44,0.00,,,0.00,WeatherCatV1.14B232,2013-03-31 14:22:00,
2013-03-31 10:27:00,50.4,29.3,30.09,SW,220,1.0,6.0,44,0.00,,,0.00,WeatherCatV1.14B232,2013-03-31 14:27:00,
2013-03-31 10:32:00,50.5,28.8,30.09,SW,220,4.0,4.0,43,0.00,,,0.00,WeatherCatV1.14B232,2013-03-31 14:32:00,
2013-03-31 10:36:00,51.2,29.5,30.10,SW,219,2.0,3.0,43,0.00,,,0.00,WeatherCatV1.14B232,2013-03-31 14:36:00,
2013-03-31 10:41:00,52.0,28.4,30.09,SW,217,1.0,2.0,40,0.00,,,0.00,WeatherCatV1.14B232,2013-03-31 14:41:00,
2013-03-31 10:46:00,51.8,28.3,30.09,SSE,152,2.0,4.0,40,0.00,,,0.00,WeatherCatV1.14B232,2013-03-31 14:46:00,
2013-03-31 10:51:00,52.5,27.6,30.08,SSE,153,3.0,6.0,38,0.00,,,0.00,WeatherCatV1.14B232,2013-03-31 14:51:00,
2013-03-31 10:56:00,53.2,28.9,30.09,South,179,2.0,7.0,39,0.00,,,0.00,WeatherCatV1.14B232,2013-03-31 14:56:00,
2013-03-31 11:01:00,53.6,28.0,30.09,SSE,155,3.0,8.0,37,0.00,,,0.00,WeatherCatV1.14B232,2013-03-31 15:01:00,
2013-03-31 11:06:00,53.8,29.4,30.09,SSE,150,2.0,4.0,39,0.00,,,0.00,WeatherCatV1.14B232,2013-03-31 15:06:00,
2013-03-31 11:11:00,54.3,29.2,30.09,SE,131,3.0,5.0,38,0.00,,,0.00,WeatherCatV1.14B232,2013-03-31 15:11:00,
2013-03-31 11:16:00,54.6,27.5,30.08,ESE,110,2.0,7.0,35,0.00,,,0.00,WeatherCatV1.14B232,2013-03-31 15:16:00,
2013-03-31 11:21:00,54.8,28.4,30.08,South,183,7.0,7.0,36,0.00,,,0.00,WeatherCatV1.14B232,2013-03-31 15:21:00,
2013-03-31 11:26:00,55.6,29.1,30.08,SSW,208,2.0,7.0,36,0.00,,,0.00,WeatherCatV1.14B232,2013-03-31 15:26:00,
2013-03-31 11:31:00,55.6,29.1,30.08,South,169,3.0,13.0,36,0.00,,,0.00,WeatherCatV1.14B232,2013-03-31 15:31:00,
2013-03-31 11:36:00,56.1,30.2,30.08,SW,228,6.0,8.0,37,0.00,,,0.00,WeatherCatV1.14B232,2013-03-31 15:36:00,
2013-03-31 11:41:00,56.4,28.4,30.08,WSW,252,6.0,6.0,34,0.00,,,0.00,WeatherCatV1.14B232,2013-03-31 15:41:00,
2013-03-31 11:46:00,56.8,28.7,30.08,SSW,192,4.0,11.0,34,0.00,,,0.00,WeatherCatV1.14B232,2013-03-31 15:46:00,
2013-03-31 11:51:00,57.0,29.6,30.07,SW,219,2.0,4.0,35,0.00,,,0.00,WeatherCatV1.14B232,2013-03-31 15:51:00,
2013-03-31 11:56:00,57.6,29.4,30.07,SSW,209,6.0,8.0,34,0.00,,,0.00,WeatherCatV1.14B232,2013-03-31 15:56:00,
2013-03-31 12:01:00,57.1,29.7,30.06,SW,233,8.0,8.0,35,0.00,,,0.00,WeatherCatV1.14B232,2013-03-31 16:01:00,
2013-03-31 12:06:00,57.4,29.3,30.06,South,170,5.0,10.0,34,0.00,,,0.00,WeatherCatV1.14B232,2013-03-31 16:06:00,
2013-03-31 12:11:00,57.9,29.7,30.05,SSW,210,9.0,13.0,34,0.00,,,0.00,WeatherCatV1.14B232,2013-03-31 16:11:00,
2013-03-31 12:16:00,57.9,29.7,30.05,South,182,3.0,7.0,34,0.00,,,0.00,WeatherCatV1.14B232,2013-03-31 16:16:00,
2013-03-31 12:21:00,58.3,30.1,30.06,South,183,8.0,8.0,34,0.00,,,0.00,WeatherCatV1.14B232,2013-03-31 16:21:00,
2013-03-31 12:26:00,58.6,29.6,30.05,South,184,7.0,7.0,33,0.00,,,0.00,WeatherCatV1.14B232,2013-03-31 16:26:00,
2013-03-31 12:31:00,58.8,29.8,30.04,West,278,3.0,6.0,33,0.00,,,0.00,WeatherCatV1.14B232,2013-03-31 16:31:00,
2013-03-31 12:36:00,58.8,29.0,30.04,South,175,4.0,10.0,32,0.00,,,0.00,WeatherCatV1.14B232,2013-03-31 16:36:00,
2013-03-31 12:41:00,59.1,30.0,30.05,WSW,239,8.0,14.0,33,0.00,,,0.00,WeatherCatV1.14B232,2013-03-31 16:41:00,
2013-03-31 12:46:00,59.4,27.1,30.04,SSW,203,13.0,19.0,29,0.00,,,0.00,WeatherCatV1.14B232,2013-03-31 16:46:00,
2013-03-31 12:51:00,59.4,28.8,30.03,South,183,4.0,9.0,31,0.00,,,0.00,WeatherCatV1.14B232,2013-03-31 16:51:00,
2013-03-31 12:52:00,59.6,28.9,30.03,SSW,198,7.0,11.0,31,0.00,,,0.00,WeatherCatV1.14B232,2013-03-31 16:52:00,
2013-03-31 12:57:00,59.7,27.4,30.03,SW,216,12.0,12.0,29,0.00,,,0.00,WeatherCatV1.14B232,2013-03-31 16:57:00,
2013-03-31 13:02:00,59.7,27.4,30.03,SW,216,5.0,13.0,29,0.00,,,0.00,WeatherCatV1.14B232,2013-03-31 17:02:00,
2013-03-31 13:07:00,59.8,28.3,30.02,WNW,291,1.0,7.0,30,0.00,,,0.00,WeatherCatV1.14B232,2013-03-31 17:07:00,
2013-03-31 13:12:00,60.1,27.7,30.02,SW,236,5.0,13.0,29,0.00,,,0.00,WeatherCatV1.14B232,2013-03-31 17:12:00,
2013-03-31 13:17:00,60.3,27.9,30.02,SW,215,4.0,15.0,29,0.00,,,0.00,WeatherCatV1.14B232,2013-03-31 17:17:00,
2013-03-31 13:21:00,60.5,28.1,30.02,SW,236,5.0,18.0,29,0.00,,,0.00,WeatherCatV1.14B232,2013-03-31 17:21:00,
2013-03-31 13:26:00,60.0,27.7,30.01,SSW,211,10.0,13.0,29,0.00,,,0.00,WeatherCatV1.14B232,2013-03-31 17:26:00,
2013-03-31 13:31:00,60.2,27.8,30.02,WNW,297,14.0,14.0,29,0.00,,,0.00,WeatherCatV1.14B232,2013-03-31 17:31:00,
2013-03-31 13:36:00,59.5,27.2,30.01,SW,227,13.0,16.0,29,0.00,,,0.00,WeatherCatV1.14B232,2013-03-31 17:36:00,
2013-03-31 13:41:00,59.2,27.0,30.00,SW,234,8.0,13.0,29,0.00,,,0.00,WeatherCatV1.14B232,2013-03-31 17:41:00,
2013-03-31 13:46:00,59.2,27.0,30.00,SW,224,9.0,10.0,29,0.00,,,0.00,WeatherCatV1.14B232,2013-03-31 17:46:00,
2013-03-31 13:51:00,59.4,27.1,30.00,SSW,211,13.0,13.0,29,0.00,,,0.00,WeatherCatV1.14B232,2013-03-31 17:51:00,
2013-03-31 13:56:00,59.6,27.3,30.00,SW,214,7.0,15.0,29,0.00,,,0.00,WeatherCatV1.14B232,2013-03-31 17:56:00,
2013-03-31 14:01:00,59.6,28.1,30.00,WSW,247,4.0,11.0,30,0.00,,,0.00,WeatherCatV1.14B232,2013-03-31 18:01:00,
2013-03-31 14:06:00,59.5,26.4,29.99,SW,232,5.0,11.0,28,0.00,,,0.00,WeatherCatV1.14B232,2013-03-31 18:06:00,
2013-03-31 14:09:00,59.6,27.3,30.00,SSW,201,12.0,16.0,29,0.00,,,0.00,WeatherCatV1.14B232,2013-03-31 18:09:00,
2013-03-31 14:14:00,60.0,26.8,29.99,SSW,208,9.0,17.0,28,0.00,,,0.00,WeatherCatV1.14B232,2013-03-31 18:14:00,
2013-03-31 14:16:00,60.0,27.7,29.99,SW,217,4.0,12.0,29,0.00,,,0.00,WeatherCatV1.14B232,2013-03-31 18:16:00,
2013-03-31 14:19:00,59.7,27.4,29.98,SSW,201,11.0,19.0,29,0.00,,,0.00,WeatherCatV1.14B232,2013-03-31 18:19:00,
2013-03-31 14:21:00,59.7,27.4,29.99,West,265,6.0,12.0,29,0.00,,,0.00,WeatherCatV1.14B232,2013-03-31 18:21:00,
2013-03-31 14:26:00,59.4,28.0,29.99,SSW,204,10.0,10.0,30,0.00,,,0.00,WeatherCatV1.14B232,2013-03-31 18:26:00,
2013-03-31 14:31:00,59.5,27.2,29.98,SSW,202,5.0,15.0,29,0.00,,,0.00,WeatherCatV1.14B232,2013-03-31 18:31:00,
2013-03-31 14:36:00,59.7,28.2,29.98,SSW,210,8.0,8.0,30,0.00,,,0.00,WeatherCatV1.14B232,2013-03-31 18:36:00,
2013-03-31 14:41:00,59.7,28.2,29.98,SW,216,0.0,8.0,30,0.00,,,0.00,WeatherCatV1.14B232,2013-03-31 18:41:00,
2013-03-31 14:46:00,59.7,28.2,29.98,SSW,207,4.0,10.0,30,0.00,,,0.00,WeatherCatV1.14B232,2013-03-31 18:46:00,
2013-03-31 14:51:00,59.6,27.3,29.97,SW,215,3.0,8.0,29,0.00,,,0.00,WeatherCatV1.14B232,2013-03-31 18:51:00,
2013-03-31 14:56:00,59.7,29.0,29.97,SSW,199,0.0,5.0,31,0.00,,,0.00,WeatherCatV1.14B232,2013-03-31 18:56:00,
2013-03-31 15:01:00,59.7,27.4,29.97,SW,232,4.0,8.0,29,0.00,,,0.00,WeatherCatV1.14B232,2013-03-31 19:01:00,
2013-03-31 15:06:00,59.2,27.8,29.97,SW,217,11.0,11.0,30,0.00,,,0.00,WeatherCatV1.14B232,2013-03-31 19:06:00,
2013-03-31 15:11:00,59.2,28.6,29.97,WSW,245,3.0,12.0,31,0.00,,,0.00,WeatherCatV1.14B232,2013-03-31 19:11:00,
2013-03-31 15:16:00,59.2,28.6,29.96,SSE,156,4.0,10.0,31,0.00,,,0.00,WeatherCatV1.14B232,2013-03-31 19:16:00,
2013-03-31 15:21:00,59.0,29.2,29.97,SSW,197,8.0,17.0,32,0.00,,,0.00,WeatherCatV1.14B232,2013-03-31 19:21:00,
2013-03-31 15:26:00,58.8,29.0,29.96,SSW,202,16.0,22.0,32,0.00,,,0.00,WeatherCatV1.14B232,2013-03-31 19:26:00,
2013-03-31 15:31:00,58.5,29.5,29.95,SSW,198,5.0,7.0,33,0.00,,,0.00,WeatherCatV1.14B232,2013-03-31 19:31:00,
2013-03-31 15:32:00,58.5,29.5,29.96,SW,214,6.0,7.0,33,0.00,,,0.00,WeatherCatV1.14B232,2013-03-31 19:32:00,
2013-03-31 15:36:00,58.6,29.6,29.96,SSW,196,4.0,9.0,33,0.00,,,0.00,WeatherCatV1.14B232,2013-03-31 19:36:00,
2013-03-31 15:41:00,58.5,29.5,29.96,South,180,5.0,16.0,33,0.00,,,0.00,WeatherCatV1.14B232,2013-03-31 19:41:00,
2013-03-31 15:46:00,58.3,29.3,29.95,South,190,6.0,9.0,33,0.00,,,0.00,WeatherCatV1.14B232,2013-03-31 19:46:00,
2013-03-31 15:51:00,58.5,29.5,29.96,SSW,195,7.0,15.0,33,0.00,,,0.00,WeatherCatV1.14B232,2013-03-31 19:51:00,
2013-03-31 15:56:00,58.2,28.5,29.96,South,179,4.0,19.0,32,0.00,,,0.00,WeatherCatV1.14B232,2013-03-31 19:56:00,
2013-03-31 16:01:00,58.2,28.5,29.94,SSE,164,5.0,9.0,32,0.00,,,0.00,WeatherCatV1.14B232,2013-03-31 20:01:00,
2013-03-31 16:06:00,58.3,29.3,29.95,SSW,206,2.0,11.0,33,0.00,,,0.00,WeatherCatV1.14B232,2013-03-31 20:06:00,
2013-03-31 16:08:00,58.3,29.3,29.95,SSW,193,1.0,6.0,33,0.00,,,0.00,WeatherCatV1.14B232,2013-03-31 20:08:00,
2013-03-31 16:13:00,58.3,29.3,29.95,SE,141,6.0,9.0,33,0.00,,,0.00,WeatherCatV1.14B232,2013-03-31 20:13:00,
2013-03-31 16:15:00,58.2,29.2,29.94,SSW,196,6.0,7.0,33,0.00,,,0.00,WeatherCatV1.14B232,2013-03-31 20:15:00,
2013-03-31 16:18:00,58.3,29.3,29.94,SW,231,5.0,10.0,33,0.00,,,0.00,WeatherCatV1.14B232,2013-03-31 20:18:00,
2013-03-31 16:21:00,58.3,29.3,29.95,WSW,246,7.0,12.0,33,0.00,,,0.00,WeatherCatV1.14B232,2013-03-31 20:21:00,
2013-03-31 16:24:00,58.2,29.2,29.94,SSW,192,9.0,18.0,33,0.00,,,0.00,WeatherCatV1.14B232,2013-03-31 20:24:00,
2013-03-31 16:26:00,58.1,29.2,29.95,SSW,204,8.0,18.0,33,0.00,,,0.00,WeatherCatV1.14B232,2013-03-31 20:26:00,
2013-03-31 16:29:00,57.9,29.0,29.94,SSW,201,5.0,15.0,33,0.00,,,0.00,WeatherCatV1.14B232,2013-03-31 20:29:00,
2013-03-31 16:34:00,57.7,28.8,29.95,SSW,212,6.0,12.0,33,0.00,,,0.00,WeatherCatV1.14B232,2013-03-31 20:34:00,
2013-03-31 16:36:00,57.6,29.4,29.94,SSW,201,8.0,11.0,34,0.00,,,0.00,WeatherCatV1.14B232,2013-03-31 20:36:00,
2013-03-31 16:41:00,57.4,29.3,29.94,South,185,2.0,11.0,34,0.00,,,0.00,WeatherCatV1.14B232,2013-03-31 20:41:00,
2013-03-31 16:46:00,57.4,28.5,29.94,SSW,201,11.0,20.0,33,0.00,,,0.00,WeatherCatV1.14B232,2013-03-31 20:46:00,
2013-03-31 16:47:00,57.4,28.5,29.93,SSW,206,12.0,12.0,33,0.00,,,0.00,WeatherCatV1.14B232,2013-03-31 20:47:00,
2013-03-31 16:51:00,57.3,29.2,29.94,South,169,10.0,20.0,34,0.00,,,0.00,WeatherCatV1.14B232,2013-03-31 20:51:00,
2013-03-31 16:56:00,57.3,29.2,29.95,SW,220,4.0,9.0,34,0.00,,,0.00,WeatherCatV1.14B232,2013-03-31 20:56:00,
2013-03-31 17:01:00,57.4,28.5,29.94,South,184,10.0,12.0,33,0.00,,,0.00,WeatherCatV1.14B232,2013-03-31 21:01:00,
2013-03-31 17:06:00,57.4,28.5,29.94,South,190,5.0,8.0,33,0.00,,,0.00,WeatherCatV1.14B232,2013-03-31 21:06:00,
2013-03-31 17:11:00,57.3,28.4,29.94,SSE,159,9.0,11.0,33,0.00,,,0.00,WeatherCatV1.14B232,2013-03-31 21:11:00,
2013-03-31 17:16:00,56.8,28.0,29.93,SW,216,8.0,8.0,33,0.00,,,0.00,WeatherCatV1.14B232,2013-03-31 21:16:00,
2013-03-31 17:21:00,56.8,28.0,29.93,SW,230,6.0,8.0,33,0.00,,,0.00,WeatherCatV1.14B232,2013-03-31 21:21:00,
2013-03-31 17:26:00,56.8,28.0,29.93,SSW,209,7.0,15.0,33,0.00,,,0.00,WeatherCatV1.14B232,2013-03-31 21:26:00,
2013-03-31 17:31:00,56.5,27.7,29.93,South,171,8.0,11.0,33,0.00,,,0.00,WeatherCatV1.14B232,2013-03-31 21:31:00,
2013-03-31 17:36:00,56.4,27.7,29.93,South,180,3.0,7.0,33,0.00,,,0.00,WeatherCatV1.14B232,2013-03-31 21:36:00,
2013-03-31 17:41:00,56.4,28.4,29.93,SSW,200,3.0,6.0,34,0.00,,,0.00,WeatherCatV1.14B232,2013-03-31 21:41:00,
2013-03-31 17:46:00,56.1,28.1,29.93,SSW,193,5.0,7.0,34,0.00,,,0.00,WeatherCatV1.14B232,2013-03-31 21:46:00,
2013-03-31 17:51:00,55.6,27.0,29.93,SSW,212,5.0,11.0,33,0.00,,,0.00,WeatherCatV1.14B232,2013-03-31 21:51:00,
2013-03-31 17:56:00,55.0,27.2,29.93,SSW,198,5.0,9.0,34,0.00,,,0.00,WeatherCatV1.14B232,2013-03-31 21:56:00,
2013-03-31 18:01:00,54.6,27.5,29.93,SSW,205,12.0,12.0,35,0.00,,,0.00,WeatherCatV1.14B232,2013-03-31 22:01:00,
2013-03-31 18:06:00,54.2,27.2,29.93,WSW,247,5.0,12.0,35,0.00,,,0.00,WeatherCatV1.14B232,2013-03-31 22:06:00,
2013-03-31 18:11:00,53.9,26.9,29.93,SSW,210,4.0,8.0,35,0.00,,,0.00,WeatherCatV1.14B232,2013-03-31 22:11:00,
2013-03-31 18:16:00,53.6,28.0,29.94,SW,234,8.0,10.0,37,0.00,,,0.00,WeatherCatV1.14B232,2013-03-31 22:16:00,
2013-03-31 18:21:00,53.4,27.8,29.93,SSW,199,7.0,12.0,37,0.00,,,0.00,WeatherCatV1.14B232,2013-03-31 22:21:00,
2013-03-31 18:26:00,53.3,28.3,29.93,WSW,241,7.0,8.0,38,0.00,,,0.00,WeatherCatV1.14B232,2013-03-31 22:26:00,
2013-03-31 18:31:00,53.0,28.7,29.93,SSW,205,6.0,12.0,39,0.00,,,0.00,WeatherCatV1.14B232,2013-03-31 22:31:00,
2013-03-31 18:36:00,52.9,29.2,29.93,South,179,7.0,8.0,40,0.00,,,0.00,WeatherCatV1.14B232,2013-03-31 22:36:00,
2013-03-31 18:41:00,52.6,30.2,29.94,SSW,203,9.0,10.0,42,0.00,,,0.00,WeatherCatV1.14B232,2013-03-31 22:41:00,
2013-03-31 18:46:00,52.4,31.7,29.93,SSW,203,5.0,12.0,45,0.00,,,0.00,WeatherCatV1.14B232,2013-03-31 22:46:00,
2013-03-31 18:51:00,52.3,32.1,29.93,SSW,200,3.0,12.0,46,0.00,,,0.00,WeatherCatV1.14B232,2013-03-31 22:51:00,
2013-03-31 18:56:00,52.1,32.5,29.93,SSW,205,4.0,11.0,47,0.00,,,0.00,WeatherCatV1.14B232,2013-03-31 22:56:00,
2013-03-31 19:01:00,51.8,32.7,29.93,SSW,208,5.0,17.0,48,0.00,,,0.00,WeatherCatV1.14B232,2013-03-31 23:01:00,
2013-03-31 19:06:00,51.7,33.2,29.93,South,186,7.0,7.0,49,0.00,,,0.00,WeatherCatV1.14B232,2013-03-31 23:06:00,
2013-03-31 19:11:00,51.6,33.1,29.92,SSW,194,8.0,13.0,49,0.00,,,0.00,WeatherCatV1.14B232,2013-03-31 23:11:00,
2013-03-31 19:16:00,51.5,33.5,29.93,SSW,210,4.0,8.0,50,0.00,,,0.00,WeatherCatV1.14B232,2013-03-31 23:16:00,
2013-03-31 19:21:00,51.4,33.9,29.93,SSW,192,3.0,8.0,51,0.00,,,0.00,WeatherCatV1.14B232,2013-03-31 23:21:00,
2013-03-31 19:26:00,51.3,33.8,29.93,SSW,197,8.0,10.0,51,0.00,,,0.00,WeatherCatV1.14B232,2013-03-31 23:26:00,
2013-03-31 19:31:00,51.1,34.1,29.92,South,191,8.0,10.0,52,0.00,,,0.00,WeatherCatV1.14B232,2013-03-31 23:31:00,
2013-03-31 19:32:00,51.1,34.1,29.93,SSW,205,7.0,10.0,52,0.00,,,0.00,WeatherCatV1.14B232,2013-03-31 23:32:00,
2013-03-31 19:37:00,50.9,34.4,29.92,SSW,205,15.0,17.0,53,0.00,,,0.00,WeatherCatV1.14B232,2013-03-31 23:37:00,
2013-03-31 19:42:00,50.8,34.3,29.93,SSW,212,14.0,24.0,53,0.00,,,0.00,WeatherCatV1.14B232,2013-03-31 23:42:00,
2013-03-31 19:47:00,50.8,34.3,29.93,SSW,199,5.0,9.0,53,0.00,,,0.00,WeatherCatV1.14B232,2013-03-31 23:47:00,
2013-03-31 19:52:00,50.6,35.0,29.93,SSW,195,5.0,10.0,55,0.00,,,0.00,WeatherCatV1.14B232,2013-03-31 23:52:00,
2013-03-31 19:57:00,50.4,35.3,29.93,SSW,196,10.0,10.0,56,0.00,,,0.00,WeatherCatV1.14B232,2013-03-31 23:57:00,
2013-03-31 20:01:00,50.2,35.6,29.92,SSW,193,8.0,12.0,57,0.00,,,0.00,WeatherCatV1.14B232,2013-04-01 00:01:00,
2013-03-31 20:06:00,49.9,35.7,29.92,SSW,198,7.0,13.0,58,0.00,,,0.00,WeatherCatV1.14B232,2013-04-01 00:06:00,
2013-03-31 20:11:00,49.6,36.3,29.92,SSW,210,5.0,10.0,60,0.00,,,0.00,WeatherCatV1.14B232,2013-04-01 00:11:00,
2013-03-31 20:16:00,49.3,36.8,29.92,SSW,193,8.0,17.0,62,0.00,,,0.00,WeatherCatV1.14B232,2013-04-01 00:16:00,
2013-03-31 20:21:00,49.1,37.5,29.92,South,184,7.0,11.0,64,0.00,,,0.00,WeatherCatV1.14B232,2013-04-01 00:21:00,
2013-03-31 20:26:00,48.8,38.0,29.92,SSW,192,3.0,10.0,66,0.00,,,0.00,WeatherCatV1.14B232,2013-04-01 00:26:00,
2013-03-31 20:29:00,48.6,37.8,29.92,SSW,205,4.0,19.0,66,0.00,,,0.00,WeatherCatV1.14B232,2013-04-01 00:29:00,
2013-03-31 20:31:00,48.4,38.0,29.92,SSW,199,15.0,17.0,67,0.00,,,0.00,WeatherCatV1.14B232,2013-04-01 00:31:00,
2013-03-31 20:36:00,48.2,38.9,29.89,SSW,198,5.0,10.0,70,0.00,,,0.00,WeatherCatV1.14B232,2013-04-01 00:36:00,
2013-03-31 20:41:00,47.7,39.1,29.92,SSW,193,5.0,8.0,72,0.00,,,0.00,WeatherCatV1.14B232,2013-04-01 00:41:00,
2013-03-31 20:46:00,47.3,39.1,29.91,South,187,0.0,6.0,73,0.00,,,0.00,WeatherCatV1.14B232,2013-04-01 00:46:00,
2013-03-31 20:51:00,47.0,39.5,29.92,South,188,5.0,7.0,75,0.00,,,0.00,WeatherCatV1.14B232,2013-04-01 00:51:00,
2013-03-31 20:56:00,46.7,39.2,29.91,South,188,5.0,8.0,75,0.00,,,0.00,WeatherCatV1.14B232,2013-04-01 00:56:00,
2013-03-31 21:01:00,46.6,39.8,29.91,South,190,0.0,4.0,77,0.00,,,0.00,WeatherCatV1.14B232,2013-04-01 01:01:00,
2013-03-31 21:06:00,46.4,39.6,29.91,South,180,0.0,7.0,77,0.00,,,0.00,WeatherCatV1.14B232,2013-04-01 01:06:00,
2013-03-31 21:11:00,46.3,39.8,29.91,South,181,0.0,5.0,78,0.00,,,0.00,WeatherCatV1.14B232,2013-04-01 01:11:00,
2013-03-31 21:16:00,46.1,39.6,29.90,South,180,0.0,0.0,78,0.00,,,0.00,WeatherCatV1.14B232,2013-04-01 01:16:00,
2013-03-31 21:21:00,46.0,40.2,29.89,South,180,0.0,0.0,80,0.00,,,0.00,WeatherCatV1.14B232,2013-04-01 01:21:00,
2013-03-31 21:26:00,46.0,39.9,29.89,South,180,0.0,0.0,79,0.00,,,0.00,WeatherCatV1.14B232,2013-04-01 01:26:00,
2013-03-31 21:31:00,45.8,39.7,29.88,South,180,0.0,0.0,79,0.00,,,0.00,WeatherCatV1.14B232,2013-04-01 01:31:00,
2013-03-31 21:36:00,45.7,39.9,29.89,South,180,0.0,0.0,80,0.00,,,0.00,WeatherCatV1.14B232,2013-04-01 01:36:00,
2013-03-31 21:41:00,45.7,39.9,29.87,South,180,0.0,0.0,80,0.00,,,0.00,WeatherCatV1.14B232,2013-04-01 01:41:00,
2013-03-31 21:46:00,45.6,39.8,29.87,South,180,0.0,1.0,80,0.00,,,0.00,WeatherCatV1.14B232,2013-04-01 01:46:00,
2013-03-31 21:51:00,45.5,40.0,29.86,South,180,1.0,2.0,81,0.00,,,0.00,WeatherCatV1.14B232,2013-04-01 01:51:00,
2013-03-31 21:56:00,45.4,40.2,29.86,South,180,0.0,2.0,82,0.00,,,0.00,WeatherCatV1.14B232,2013-04-01 01:56:00,
2013-03-31 22:01:00,45.4,40.2,29.86,South,181,0.0,1.0,82,0.00,,,0.00,WeatherCatV1.14B232,2013-04-01 02:01:00,
2013-03-31 22:06:00,45.4,40.2,29.85,South,180,0.0,0.0,82,0.00,,,0.00,WeatherCatV1.14B232,2013-04-01 02:06:00,
2013-03-31 22:11:00,45.6,40.1,29.84,South,180,1.0,2.0,81,0.00,,,0.00,WeatherCatV1.14B232,2013-04-01 02:11:00,
2013-03-31 22:16:00,45.6,40.1,29.84,South,180,2.0,2.0,81,0.00,,,0.00,WeatherCatV1.14B232,2013-04-01 02:16:00,
2013-03-31 22:21:00,45.7,39.9,29.84,South,180,0.0,0.0,80,0.00,,,0.00,WeatherCatV1.14B232,2013-04-01 02:21:00,
2013-03-31 22:26:00,45.8,40.0,29.83,SE,125,0.0,2.0,80,0.00,,,0.00,WeatherCatV1.14B232,2013-04-01 02:26:00,
2013-03-31 22:31:00,46.0,39.9,29.83,ESE,109,1.0,3.0,79,0.00,,,0.00,WeatherCatV1.14B232,2013-04-01 02:31:00,
2013-03-31 22:36:00,46.1,39.6,29.82,ESE,108,3.0,3.0,78,0.00,,,0.00,WeatherCatV1.14B232,2013-04-01 02:36:00,
2013-03-31 22:41:00,46.4,39.3,29.81,ESE,107,7.0,8.0,76,0.00,,,0.00,WeatherCatV1.14B232,2013-04-01 02:41:00,
2013-03-31 22:46:00,46.5,39.3,29.81,ESE,112,1.0,7.0,76,0.00,,,0.00,WeatherCatV1.14B232,2013-04-01 02:46:00,
2013-03-31 22:51:00,46.5,39.0,29.80,ESE,113,1.0,5.0,75,0.00,,,0.00,WeatherCatV1.14B232,2013-04-01 02:51:00,
2013-03-31 22:56:00,46.6,39.4,29.81,ESE,114,0.0,3.0,76,0.00,,,0.00,WeatherCatV1.14B232,2013-04-01 02:56:00,
2013-03-31 23:01:00,46.6,39.8,29.81,ESE,114,0.0,4.0,77,0.00,,,0.01,WeatherCatV1.14B232,2013-04-01 03:01:00,
2013-03-31 23:06:00,46.2,40.1,29.81,ESE,115,1.0,6.0,79,0.00,,,0.01,WeatherCatV1.14B232,2013-04-01 03:06:00,
2013-03-31 23:11:00,45.8,40.3,29.81,ESE,104,1.0,4.0,81,0.00,,,0.01,WeatherCatV1.14B232,2013-04-01 03:11:00,
2013-03-31 23:16:00,45.4,40.2,29.80,ESE,113,3.0,5.0,82,0.00,,,0.01,WeatherCatV1.14B232,2013-04-01 03:16:00,
2013-03-31 23:21:00,45.1,40.6,29.79,ESE,113,0.0,4.0,84,0.00,,,0.01,WeatherCatV1.14B232,2013-04-01 03:21:00,
2013-03-31 23:26:00,44.7,39.9,29.79,ESE,114,3.0,3.0,83,0.00,,,0.01,WeatherCatV1.14B232,2013-04-01 03:26:00,
2013-03-31 23:31:00,44.6,40.1,29.78,ESE,114,0.0,5.0,84,0.00,,,0.02,WeatherCatV1.14B232,2013-04-01 03:31:00,
2013-03-31 23:32:00,44.5,40.0,29.78,ESE,114,0.0,5.0,84,0.00,,,0.02,WeatherCatV1.14B232,2013-04-01 03:32:00,
2013-03-31 23:37:00,44.3,40.1,29.77,ESE,114,2.0,3.0,85,0.00,,,0.02,WeatherCatV1.14B232,2013-04-01 03:37:00,
2013-03-31 23:42:00,44.2,40.3,29.76,ESE,113,0.0,0.0,86,0.00,,,0.02,WeatherCatV1.14B232,2013-04-01 03:42:00,
2013-03-31 23:47:00,44.0,40.4,29.76,ESE,114,0.0,0.0,87,0.01,,,0.03,WeatherCatV1.14B232,2013-04-01 03:47:00,
2013-03-31 23:52:00,43.9,40.6,29.77,ESE,114,1.0,3.0,88,0.00,,,0.03,WeatherCatV1.14B232,2013-04-01 03:52:00,
2013-03-31 23:57:00,43.7,40.4,29.76,ESE,114,0.0,2.0,88,0.00,,,0.04,WeatherCatV1.14B232,2013-04-01 03:57:00,